Location: Kunchanapalle
(16.4623°N, 80.6176°E)
Time: 04:48:28
(UTC+00:00)

ATLAS 5 CENTAUR R/B - Visible Passes

Search period start: 26 November 2020 00:00
Search period end: 06 December 2020 00:00
Orbit: 236 x 12821 km, 20.2° (Epoch: 25 November)

Date Brightness Start Highest point End Pass type
(mag) Time Alt. Az. Time Alt. Az. Time Alt. Az.
26 Nov 5.7 19:40:40 41° S 19:50:15 47° SE 21:34:39 10° ENE visible
26 Nov 6.6 23:52:17 10° WSW 01:28:54 87° NNW 02:42:15 10° E visible
27 Nov 5.6 20:00:17 44° S 20:11:54 53° SE 22:03:16 10° ENE visible
28 Nov 6.7 00:14:10 10° WSW 01:59:42 85° N 03:03:29 10° E visible
28 Nov 5.6 20:19:48 46° SSW 20:33:46 59° SE 22:30:20 10° ENE visible
29 Nov 5.6 20:39:14 45° SSW 20:55:57 65° SE 22:56:12 10° ENE visible
30 Nov 5.7 20:58:35 44° SW 21:18:31 70° SSE 23:21:05 10° ENE visible
01 Dec 6.6 17:14:36 11° ESE 17:14:36 11° ESE 17:16:05 10° ESE visible
01 Dec 5.7 21:17:49 41° SW 21:41:35 75° SSE 23:45:10 10° ENE visible
02 Dec 6.5 17:33:46 16° ESE 17:33:46 16° ESE 17:47:17 10° E visible
02 Dec 5.8 21:36:57 38° SW 22:05:17 80° SSE 00:08:34 10° E visible
03 Dec 6.3 17:52:49 21° ESE 17:52:49 21° ESE 18:18:58 10° E visible
03 Dec 5.9 21:55:59 34° WSW 22:29:45 84° SSE 00:31:23 10° E visible
04 Dec 6.2 18:11:46 27° ESE 18:11:46 27° ESE 18:51:10 10° E visible
04 Dec 5.9 22:14:55 30° WSW 22:55:07 88° SSE 00:53:40 10° E visible
05 Dec 6.1 18:30:36 34° ESE 18:30:36 34° ESE 19:23:25 10° E visible
